Location: Crescent
(42.8242°N, 73.7329°W)
Time: 21:06:20
(UTC+00:00)

Vanguard 2 Rocket - Pass Details

Date: 22 February 2026
Orbit: 553 x 3287 km, 32.9° (Epoch: 5 March)

Event Time Altitude Azimuth Distance (km) Brightness Sun altitude
Rises 15:25:23 0° 227° (SW) 6,947 11.5 32.1°
Reaches altitude 10° 15:30:07 10° 222° (SW) 6,099 11.4 32.6°
Maximum altitude 15:48:26 47° 157° (SSE) 3,850 12.3 34.1°
Drops below altitude 10° 16:03:50 10° 92° (E) 5,219 11.1 35.1°
Sets 16:07:28 0° 86° (E) 5,919 11.2 35.4°
